Вернуться в каталог

STARLINK-34700

АктивенСвязьVLEO
NORAD 64922·PAYLOAD·🇺🇸 United States

Запущен Jul 26, 2025 с Cape Canaveral Space Force Station

Loading…

Ближайшие Пролёты (ближайшие 24 часа)

TLE

СвежийSource: CelesTrak SupGP

Эпоха: Sep 14, 2026, 21:12 UTC

1 64922C 25157U   26257.88381944  .00000375  00000+0  11063-4 0  2576
2 64922  53.1583 184.2403 0001346  91.3473  46.3793 15.34408086    15

Отслеживайте STARLINK-34700 в реальном времени с AllMySat

Download on the App Store